Weather History for Grand Canyon, AZ

Change the Weather History Date:

Thursday, November 15, 2012

  Actual Average Record
Temperature  
Mean Temperature 36 °F -  
Max Temperature 57 °F 50 °F 71 °F (1999)
Min Temperature 14 °F 19 °F 2 °F (1985)
Degree Days  
Heating Degree Days 30    
Moisture  
Dew Point 4 °F    
Average Humidity 30    
Maximum Humidity 52    
Minimum Humidity 10    
Precipitation  
Precipitation 0.00 in - - ()
Sea Level Pressure  
Sea Level Pressure 30.26 in    
Wind  
Wind Speed 2 mph (ENE)    
Max Wind Speed 13 mph    
Max Gust Speed -    
Visibility 10 miles    
Events      
Averages and records for this station are not official NWS values.
T = Trace of Precipitation, MM = Missing Value Source: NWS Daily Summary

Daily Weather History Graph

Daily Weather History Graph

Search for Another Location

Airport:

Trip Planner

Search our weather history database for the weather conditions in past years. The results will help you decide how hot, cold, wet, or windy it might be!

Date:

Astronomy

Nov. 15, 2012 Rise Set
Actual Time 7:05 AM MST 5:20 PM MST
Civil Twilight 6:38 AM MST 5:48 PM MST
Nautical Twilight 6:07 AM MST 6:18 PM MST
Astronomical Twilight 5:36 AM MST 6:49 PM MST
Moon 9:02 AM MST (11/15) 7:18 PM MST (11/15)
Length of Visible Light 11h 09m
Length of Day
10h 15m
Waxing Crescent, 5% of the Moon is Illuminated
Nov 15
Waxing Crescent
Nov 20
First Quarter
Nov 28
Full
Dec 6
Last Quarter
Dec 13
New

Hourly Weather History & Observations

Time (MST) Temp. Windchill Dew Point Humidity Pressure Visibility Wind Dir Wind Speed Gust Speed Precip Events Conditions
12:54 AM 15.1 °F - -2.9 °F 45% 30.23 in 10.0 mi Calm Calm - N/A   Clear
1:54 AM 16.0 °F - -0.9 °F 47% 30.22 in 10.0 mi Calm Calm - N/A   Clear
2:54 AM 17.1 °F - -0.9 °F 45% 30.22 in 10.0 mi Calm Calm - N/A   Clear
3:54 AM 17.1 °F - -0.9 °F 45% 30.22 in 10.0 mi Calm Calm - N/A   Clear
4:54 AM 15.1 °F - -0.9 °F 49% 30.27 in 10.0 mi Calm Calm - N/A   Clear
5:54 AM 15.1 °F - -0.0 °F 51% 30.32 in 10.0 mi Calm Calm - N/A   Clear
6:54 AM 14.0 °F - -0.9 °F 52% 30.37 in 10.0 mi Calm Calm - N/A   Clear
7:54 AM 19.0 °F - 1.0 °F 46% 30.38 in 10.0 mi Calm Calm - N/A   Clear
8:54 AM 30.9 °F - 6.1 °F 35% 30.34 in 10.0 mi Calm Calm - N/A   Clear
9:54 AM 52.0 °F - 1.9 °F 13% 30.26 in 10.0 mi East 8.1 mph - N/A   Clear
10:54 AM 54.0 °F - -0.0 °F 11% 30.27 in 10.0 mi East 6.9 mph - N/A   Clear
11:54 AM 55.0 °F - -0.9 °F 10% 30.27 in 10.0 mi ENE 6.9 mph - N/A   Clear
12:54 PM 57.0 °F - 1.9 °F 11% 30.26 in 10.0 mi East 5.8 mph - N/A   Clear
1:54 PM 55.9 °F - 7.0 °F 14% 30.24 in 10.0 mi ENE 9.2 mph - N/A   Clear
2:54 PM 51.1 °F - 10.0 °F 19% 30.25 in 10.0 mi NE 12.7 mph - N/A   Clear
3:54 PM 48.9 °F - 10.0 °F 21% 30.26 in 10.0 mi NE 8.1 mph - N/A   Clear
4:54 PM 46.9 °F - 10.0 °F 22% 30.28 in 10.0 mi NE 6.9 mph - N/A   Clear
5:54 PM 46.0 °F 43.9 °F 9.0 °F 22% 30.28 in 10.0 mi East 4.6 mph - N/A   Clear
6:54 PM 45.0 °F 42.6 °F 8.1 °F 22% 30.30 in 10.0 mi East 4.6 mph - N/A   Clear
7:54 PM 45.0 °F 42.6 °F 7.0 °F 21% 30.27 in 10.0 mi East 4.6 mph - N/A   Clear
8:54 PM 44.1 °F 42.5 °F 6.1 °F 21% 30.23 in 10.0 mi ENE 3.5 mph - N/A   Clear
9:54 PM 37.9 °F - 8.1 °F 29% 30.18 in 10.0 mi Calm Calm - N/A   Mostly Cloudy
10:54 PM 37.0 °F - 8.1 °F 30% 30.17 in 10.0 mi Calm Calm - N/A   Overcast
11:54 PM 34.0 °F - 7.0 °F 32% 30.16 in 10.0 mi Calm Calm - N/A   Scattered Clouds